,,,PA_Meas_PMT16A,,PR_Meas_QMR101_102,,RH_Meas_QMH101,,SR_Meas_QMS101,,TA_Meas_QMH101,,GenWind,,GenWind,
date,time,status,PA,status,PR,status,RH,status,SR,status,TA,status,DirAvg,status,SpdAvg,
2010-07-20, 00:00:04,VALID,1000.58,VALID,0,VALID,88.5189,VALID,0,VALID,24.4428,VALID,220,VALID,0.373437,
2010-07-20, 00:01:04,VALID,1000.56,VALID,0,VALID,88.7783,VALID,0,VALID,24.4623,VALID,220,VALID,0.420312,
2010-07-20, 00:02:04,VALID,1000.55,VALID,0,VALID,88.9537,VALID,0,VALID,24.4623,VALID,326,VALID,0.617969,
2010-07-20, 00:03:04,VALID,1000.55,VALID,0,VALID,89.1445,VALID,0,VALID,24.4233,VALID,326,VALID,0.65,
2010-07-20, 00:04:04,VALID,1000.52,VALID,0,VALID,89.3734,VALID,0,VALID,24.3629,VALID,329,VALID,0.76875,
2010-07-20, 00:05:04,VALID,1000.53,VALID,0,VALID,89.6633,VALID,0,VALID,24.3452,VALID,332,VALID,0.810938,
2010-07-20, 00:06:04,VALID,1000.51,VALID,0,VALID,89.8769,VALID,0,VALID,24.2866,VALID,332,VALID,0.644141,
2010-07-20, 00:07:04,VALID,1000.52,VALID,0,VALID,90.1134,VALID,0,VALID,24.2476,VALID,332,VALID,0.565234,
2010-07-20, 00:08:04,VALID,1000.52,VALID,0,VALID,90.2966,VALID,0,VALID,24.2086,VALID,332,VALID,0.531641,
2010-07-20, 00:09:04,VALID,1000.52,VALID,0,VALID,90.5026,VALID,0,VALID,24.1891,VALID,332,VALID,0.682031,
2010-07-20, 00:10:04,VALID,1000.52,VALID,0,VALID,90.6933,VALID,0,VALID,24.1696,VALID,332,VALID,0.764453,
2010-07-20, 00:11:04,VALID,1000.52,VALID,0,VALID,90.8917,VALID,0,VALID,24.1305,VALID,332,VALID,0.755859,
2010-07-20, 00:12:04,VALID,1000.53,VALID,0,VALID,91.0671,VALID,0,VALID,24.1092,VALID,360,VALID,0.842578,
2010-07-20, 00:13:04,VALID,1000.54,VALID,0,VALID,91.1892,VALID,0,VALID,24.072,VALID,14,VALID,0.870313,
2010-07-20, 00:14:04,VALID,1000.57,VALID,0,VALID,91.2274,VALID,0,VALID,24.0329,VALID,23,VALID,0.892187,
2010-07-20, 00:15:04,VALID,1000.55,VALID,0,VALID,91.2197,VALID,0,VALID,23.9939,VALID,24,VALID,0.938281,
2010-07-20, 00:16:04,VALID,1000.55,VALID,0,VALID,91.2045,VALID,0,VALID,23.9531,VALID,27,VALID,0.834766,
2010-07-20, 00:17:04,VALID,1000.6,VALID,0,VALID,91.1892,VALID,0,VALID,23.9549,VALID,29,VALID,0.779297,
2010-07-20, 00:18:04,VALID,1000.61,VALID,0,VALID,91.3189,VALID,0,VALID,23.9744,VALID,45,VALID,0.957031,
2010-07-20, 00:19:04,VALID,1000.6,VALID,0,VALID,91.4639,VALID,0,VALID,23.9744,VALID,45,VALID,0.907031,
2010-07-20, 00:20:04,VALID,1000.62,VALID,0,VALID,91.5936,VALID,0,VALID,23.9726,VALID,48,VALID,0.789063,
2010-07-20, 00:21:04,VALID,1000.65,VALID,0,VALID,91.6928,VALID,0,VALID,24.0134,VALID,52,VALID,0.878125,
2010-07-20, 00:22:04,VALID,1000.63,VALID,0,VALID,91.792,VALID,0,VALID,24.0116,VALID,54,VALID,0.689844,
2010-07-20, 00:23:04,VALID,1000.64,VALID,0,VALID,91.9217,VALID,0,VALID,24.0311,VALID,56,VALID,0.814844,
2010-07-20, 00:24:04,VALID,1000.64,VALID,0,VALID,91.9827,VALID,0,VALID,24.072,VALID,61,VALID,0.636328,
2010-07-20, 00:25:04,VALID,1000.65,VALID,0,VALID,92.0514,VALID,0,VALID,24.072,VALID,69,VALID,0.614844,
2010-07-20, 00:26:04,VALID,1000.65,VALID,0,VALID,92.0971,VALID,0,VALID,24.072,VALID,69,VALID,0.520703,
2010-07-20, 00:27:04,VALID,1000.63,VALID,0,VALID,92.1429,VALID,0,VALID,24.072,VALID,69,VALID,0.605469,
2010-07-20, 00:28:04,VALID,1000.64,VALID,0,VALID,92.1734,VALID,0,VALID,24.0525,VALID,69,VALID,0.635547,
2010-07-20, 00:29:04,VALID,1000.61,VALID,0,VALID,92.1124,VALID,0,VALID,24.0329,VALID,69,VALID,0.765625,
2010-07-20, 00:30:04,VALID,1000.62,VALID,0,VALID,92.0743,VALID,0,VALID,24.0134,VALID,69,VALID,0.830078,
2010-07-20, 00:31:04,VALID,1000.6,VALID,0,VALID,92.0666,VALID,0,VALID,23.9939,VALID,69,VALID,0.853125,
2010-07-20, 00:32:04,VALID,1000.59,VALID,0,VALID,92.0666,VALID,0,VALID,23.9744,VALID,69,VALID,0.871094,
2010-07-20, 00:33:04,VALID,1000.57,VALID,0,VALID,92.0895,VALID,0,VALID,23.9531,VALID,69,VALID,0.887109,
2010-07-20, 00:34:04,VALID,1000.59,VALID,0,VALID,92.0743,VALID,0,VALID,23.9549,VALID,69,VALID,0.791797,
2010-07-20, 00:35:04,VALID,1000.57,VALID,0,VALID,92.0895,VALID,0,VALID,23.9531,VALID,69,VALID,0.670703,
2010-07-20, 00:36:04,VALID,1000.57,VALID,0,VALID,92.1353,VALID,0,VALID,23.9549,VALID,69,VALID,0.627734,
2010-07-20, 00:37:04,VALID,1000.55,VALID,0,VALID,92.1658,VALID,0,VALID,23.9549,VALID,69,VALID,0.836719,
2010-07-20, 00:38:04,VALID,1000.55,VALID,0,VALID,92.2116,VALID,0,VALID,23.9336,VALID,69,VALID,0.743359,
2010-07-20, 00:39:04,VALID,1000.54,VALID,0,VALID,92.2574,VALID,0,VALID,23.9549,VALID,69,VALID,0.624609,
2010-07-20, 00:40:04,VALID,1000.53,VALID,0,VALID,92.3031,VALID,0,VALID,23.9744,VALID,69,VALID,0.635938,
2010-07-20, 00:41:04,VALID,1000.52,VALID,0,VALID,92.3413,VALID,0,VALID,23.9549,VALID,67,VALID,0.667188,
2010-07-20, 00:42:04,VALID,1000.54,VALID,0,VALID,92.3337,VALID,0,VALID,23.9549,VALID,67,VALID,0.706641,
2010-07-20, 00:43:04,VALID,1000.54,VALID,0,VALID,92.2879,VALID,0,VALID,23.9336,VALID,67,VALID,0.634766,
2010-07-20, 00:44:04,VALID,1000.51,VALID,0,VALID,92.2574,VALID,0,VALID,23.9549,VALID,67,VALID,0.454688,
2010-07-20, 00:45:04,VALID,1000.52,VALID,0,VALID,92.1963,VALID,0,VALID,23.9549,VALID,67,VALID,0.395312,
2010-07-20, 00:46:04,VALID,1000.51,VALID,0,VALID,92.12,VALID,0,VALID,23.9159,VALID,67,VALID,0.433984,
2010-07-20, 00:47:04,VALID,1000.49,VALID,0,VALID,92.1048,VALID,0,VALID,23.9354,VALID,67,VALID,0.321094,
2010-07-20, 00:48:04,VALID,1000.49,VALID,0,VALID,92.0666,VALID,0,VALID,23.9159,VALID,67,VALID,0,
2010-07-20, 00:49:04,VALID,1000.46,VALID,0,VALID,92.0514,VALID,0,VALID,23.9159,VALID,67,VALID,0,
2010-07-20, 00:50:04,VALID,1000.45,VALID,0,VALID,92.0743,VALID,0,VALID,23.9159,VALID,67,VALID,0,
2010-07-20, 00:51:04,VALID,1000.42,VALID,0,VALID,92.1353,VALID,0,VALID,23.8945,VALID,67,VALID,0,
2010-07-20, 00:52:04,VALID,1000.42,VALID,0,VALID,92.2116,VALID,0,VALID,23.8945,VALID,67,VALID,0,
2010-07-20, 00:53:04,VALID,1000.36,VALID,0,VALID,92.2574,VALID,0,VALID,23.8945,VALID,67,VALID,0,
2010-07-20, 00:54:04,VALID,1000.34,VALID,0,VALID,92.2879,VALID,0,VALID,23.8963,VALID,67,VALID,0,
2010-07-20, 00:55:04,VALID,1000.35,VALID,0,VALID,92.3108,VALID,0,VALID,23.875,VALID,67,VALID,0,
2010-07-20, 00:56:04,VALID,1000.29,VALID,0,VALID,92.326,VALID,0,VALID,23.8768,VALID,67,VALID,0,
2010-07-20, 00:57:04,VALID,1000.29,VALID,0,VALID,92.326,VALID,0,VALID,23.8555,VALID,67,VALID,0,
2010-07-20, 00:58:04,VALID,1000.25,VALID,0,VALID,92.3718,VALID,0,VALID,23.8963,VALID,67,VALID,0,
2010-07-20, 00:59:04,VALID,1000.25,VALID,0,VALID,92.3794,VALID,0,VALID,23.875,VALID,67,VALID,0,
2010-07-20, 01:00:04,VALID,1000.21,VALID,0,VALID,92.3718,VALID,0,VALID,23.8768,VALID,67,VALID,0,
2010-07-20, 01:01:04,VALID,1000.22,VALID,0,VALID,92.4023,VALID,0,VALID,23.836,VALID,67,VALID,0,
2010-07-20, 01:02:04,VALID,1000.17,VALID,0,VALID,92.326,VALID,0,VALID,23.8573,VALID,60,VALID,0.213672,
2010-07-20, 01:03:04,VALID,1000.16,VALID,0,VALID,92.265,VALID,0,VALID,23.797,VALID,38,VALID,0.81875,
2010-07-20, 01:04:04,VALID,1000.16,VALID,0,VALID,92.2345,VALID,0,VALID,23.7579,VALID,35,VALID,0.882813,
2010-07-20, 01:05:04,VALID,1000.14,VALID,0,VALID,92.1734,VALID,0,VALID,23.7384,VALID,29,VALID,0.676953,
2010-07-20, 01:06:04,VALID,1000.14,VALID,0,VALID,92.1734,VALID,0,VALID,23.7012,VALID,28,VALID,0.659766,
2010-07-20, 01:07:04,VALID,1000.13,VALID,0,VALID,92.2116,VALID,0,VALID,23.6817,VALID,28,VALID,0.497656,
2010-07-20, 01:08:04,VALID,1000.12,VALID,0,VALID,92.2421,VALID,0,VALID,23.6622,VALID,28,VALID,0.227734,
2010-07-20, 01:09:04,VALID,1000.14,VALID,0,VALID,92.2879,VALID,0,VALID,23.6214,VALID,28,VALID,0.237891,
2010-07-20, 01:10:04,VALID,1000.14,VALID,0,VALID,92.3489,VALID,0,VALID,23.6232,VALID,28,VALID,0.119141,
2010-07-20, 01:11:04,VALID,1000.13,VALID,0,VALID,92.4328,VALID,0,VALID,23.6019,VALID,28,VALID,0.286719,
2010-07-20, 01:12:04,VALID,1000.13,VALID,0,VALID,92.471,VALID,0,VALID,23.6036,VALID,28,VALID,0.294531,
2010-07-20, 01:13:04,VALID,1000.12,VALID,0,VALID,92.5397,VALID,0,VALID,23.6036,VALID,28,VALID,0.543359,
2010-07-20, 01:14:04,VALID,1000.12,VALID,0,VALID,92.6312,VALID,0,VALID,23.5841,VALID,34,VALID,0.543359,
2010-07-20, 01:15:04,VALID,1000.1,VALID,0,VALID,92.7228,VALID,0,VALID,23.5628,VALID,74,VALID,0.623828,
2010-07-20, 01:16:04,VALID,1000.08,VALID,0,VALID,92.7457,VALID,0,VALID,23.5628,VALID,74,VALID,0.682422,
2010-07-20, 01:17:04,VALID,1000.06,VALID,0,VALID,92.7457,VALID,0,VALID,23.5841,VALID,87,VALID,0.739062,
2010-07-20, 01:18:04,VALID,1000.04,VALID,0,VALID,92.7533,VALID,0,VALID,23.5841,VALID,87,VALID,0.783594,
2010-07-20, 01:19:04,VALID,1000.03,VALID,0,VALID,92.7228,VALID,0,VALID,23.5646,VALID,97,VALID,0.677344,
2010-07-20, 01:20:04,VALID,1000.04,VALID,0,VALID,92.6846,VALID,0,VALID,23.5451,VALID,105,VALID,0.680078,
2010-07-20, 01:21:04,VALID,1000.02,VALID,0,VALID,92.6465,VALID,0,VALID,23.5451,VALID,105,VALID,0.417969,
2010-07-20, 01:22:04,VALID,999.988,VALID,0,VALID,92.6617,VALID,0,VALID,23.5256,VALID,105,VALID,0.594922,
2010-07-20, 01:23:04,VALID,999.972,VALID,0,VALID,92.7151,VALID,0,VALID,23.5451,VALID,105,VALID,0.399219,
2010-07-20, 01:24:04,VALID,999.95,VALID,0,VALID,92.7304,VALID,0,VALID,23.5433,VALID,105,VALID,0.291797,
2010-07-20, 01:25:04,VALID,999.945,VALID,0,VALID,92.6846,VALID,0,VALID,23.5451,VALID,105,VALID,0.173828,
2010-07-20, 01:26:04,VALID,999.943,VALID,0,VALID,92.6694,VALID,0,VALID,23.5043,VALID,105,VALID,0.0191406,
2010-07-20, 01:27:04,VALID,999.97,VALID,0,VALID,92.6694,VALID,0,VALID,23.5256,VALID,105,VALID,0,
2010-07-20, 01:28:04,VALID,999.961,VALID,0,VALID,92.6465,VALID,0,VALID,23.5451,VALID,105,VALID,0,
2010-07-20, 01:29:04,VALID,999.946,VALID,0,VALID,92.6617,VALID,0,VALID,23.5451,VALID,105,VALID,0,
2010-07-20, 01:30:04,VALID,999.95,VALID,0,VALID,92.6617,VALID,0,VALID,23.5256,VALID,105,VALID,0,
2010-07-20, 01:31:04,VALID,999.927,VALID,0,VALID,92.6541,VALID,0,VALID,23.5043,VALID,105,VALID,0,
2010-07-20, 01:32:04,VALID,999.905,VALID,0,VALID,92.5778,VALID,0,VALID,23.5256,VALID,105,VALID,0.574609,
2010-07-20, 01:33:04,VALID,999.908,VALID,0,VALID,92.471,VALID,0,VALID,23.5256,VALID,105,VALID,0.393359,
2010-07-20, 01:34:04,VALID,999.898,VALID,0,VALID,92.3489,VALID,0,VALID,23.5256,VALID,105,VALID,0,
2010-07-20, 01:35:04,VALID,999.852,VALID,0,VALID,92.2879,VALID,0,VALID,23.4848,VALID,105,VALID,0,
2010-07-20, 01:36:04,VALID,999.838,VALID,0,VALID,92.265,VALID,0,VALID,23.5061,VALID,105,VALID,0,
2010-07-20, 01:37:04,VALID,999.856,VALID,0,VALID,92.2421,VALID,0,VALID,23.5061,VALID,105,VALID,0,
2010-07-20, 01:38:04,VALID,999.835,VALID,0,VALID,92.2116,VALID,0,VALID,23.5061,VALID,105,VALID,0,
2010-07-20, 01:39:04,VALID,999.798,VALID,0,VALID,92.1582,VALID,0,VALID,23.4653,VALID,105,VALID,0,
2010-07-20, 01:40:04,VALID,999.775,VALID,0,VALID,92.1429,VALID,0,VALID,23.4671,VALID,105,VALID,0,
2010-07-20, 01:41:04,VALID,999.781,VALID,0,VALID,92.1124,VALID,0,VALID,23.4475,VALID,105,VALID,0,
2010-07-20, 01:42:04,VALID,999.741,VALID,0,VALID,92.0743,VALID,0,VALID,23.428,VALID,105,VALID,0,
2010-07-20, 01:43:04,VALID,999.689,VALID,0,VALID,92.0514,VALID,0,VALID,23.428,VALID,105,VALID,0,
2010-07-20, 01:44:04,VALID,999.677,VALID,0,VALID,92.0132,VALID,0,VALID,23.4085,VALID,105,VALID,0,
2010-07-20, 01:45:04,VALID,999.642,VALID,0,VALID,92.0437,VALID,0,VALID,23.4085,VALID,105,VALID,0,
2010-07-20, 01:46:04,VALID,999.715,VALID,0,VALID,92.0209,VALID,0,VALID,23.389,VALID,105,VALID,0,
2010-07-20, 01:47:04,VALID,999.661,VALID,0,VALID,92.0056,VALID,0,VALID,23.3482,VALID,105,VALID,0,
2010-07-20, 01:48:04,VALID,999.703,VALID,0,VALID,92.0056,VALID,0,VALID,23.35,VALID,105,VALID,0,
2010-07-20, 01:49:04,VALID,999.681,VALID,0,VALID,92.1658,VALID,0,VALID,23.35,VALID,105,VALID,0,
2010-07-20, 01:50:04,VALID,999.689,VALID,0,VALID,92.265,VALID,0,VALID,23.3305,VALID,105,VALID,0,
2010-07-20, 01:51:04,VALID,999.691,VALID,0,VALID,92.4252,VALID,0,VALID,23.35,VALID,105,VALID,0,
2010-07-20, 01:52:04,VALID,999.686,VALID,0,VALID,92.5854,VALID,0,VALID,23.3695,VALID,105,VALID,0,
2010-07-20, 01:53:04,VALID,999.668,VALID,0,VALID,92.6236,VALID,0,VALID,23.389,VALID,32,VALID,0,
2010-07-20, 01:54:04,VALID,999.676,VALID,0,VALID,92.6465,VALID,0,VALID,23.4085,VALID,32,VALID,0,
2010-07-20, 01:55:04,VALID,999.697,VALID,0,VALID,92.616,VALID,0,VALID,23.4085,VALID,32,VALID,0.349219,
2010-07-20, 01:56:04,VALID,999.706,VALID,0,VALID,92.5626,VALID,0,VALID,23.3872,VALID,32,VALID,0.971094,
2010-07-20, 01:57:04,VALID,999.67,VALID,0,VALID,92.4328,VALID,0,VALID,23.4067,VALID,32,VALID,0.870313,
2010-07-20, 01:58:04,VALID,999.696,VALID,0,VALID,92.326,VALID,0,VALID,23.389,VALID,32,VALID,0.770703,
2010-07-20, 01:59:04,VALID,999.689,VALID,0,VALID,92.3489,VALID,0,VALID,23.389,VALID,32,VALID,0.944141,
2010-07-20, 02:00:04,VALID,999.713,VALID,0,VALID,92.2803,VALID,0,VALID,23.389,VALID,33,VALID,1.01523,
2010-07-20, 02:01:04,VALID,999.702,VALID,0,VALID,92.1582,VALID,0,VALID,23.4085,VALID,41,VALID,0.928516,
2010-07-20, 02:02:04,VALID,999.715,VALID,0,VALID,91.9369,VALID,0,VALID,23.4085,VALID,45,VALID,1.09883,
2010-07-20, 02:03:04,VALID,999.747,VALID,0,VALID,91.8377,VALID,0,VALID,23.4475,VALID,46,VALID,0.674219,
2010-07-20, 02:04:04,VALID,999.713,VALID,0,VALID,91.7691,VALID,0,VALID,23.4475,VALID,47,VALID,0.582422,
2010-07-20, 02:05:04,VALID,999.709,VALID,0,VALID,91.7691,VALID,0,VALID,23.4475,VALID,46,VALID,0.351172,
2010-07-20, 02:06:04,VALID,999.716,VALID,0,VALID,91.8606,VALID,0,VALID,23.4475,VALID,46,VALID,0.00195313,
2010-07-20, 02:07:04,VALID,999.653,VALID,0,VALID,91.8835,VALID,0,VALID,23.4475,VALID,46,VALID,0,
2010-07-20, 02:08:04,VALID,999.633,VALID,0,VALID,91.9522,VALID,0,VALID,23.428,VALID,46,VALID,0,
2010-07-20, 02:09:04,VALID,999.619,VALID,0,VALID,92.0209,VALID,0,VALID,23.428,VALID,46,VALID,0,
2010-07-20, 02:10:04,VALID,999.569,VALID,0,VALID,92.1277,VALID,0,VALID,23.3872,VALID,46,VALID,0,
2010-07-20, 02:11:04,VALID,999.565,VALID,0,VALID,92.1734,VALID,0,VALID,23.4085,VALID,46,VALID,0,
2010-07-20, 02:12:04,VALID,999.544,VALID,0,VALID,92.2421,VALID,0,VALID,23.4085,VALID,46,VALID,0.400781,
2010-07-20, 02:13:04,VALID,999.544,VALID,0,VALID,92.2726,VALID,0,VALID,23.4085,VALID,46,VALID,0.605859,
2010-07-20, 02:14:04,VALID,999.543,VALID,0,VALID,92.2726,VALID,0,VALID,23.389,VALID,29,VALID,0.714453,
2010-07-20, 02:15:04,VALID,999.536,VALID,0,VALID,92.3031,VALID,0,VALID,23.389,VALID,29,VALID,0.594922,
2010-07-20, 02:16:04,VALID,999.536,VALID,0,VALID,92.3489,VALID,0,VALID,23.389,VALID,29,VALID,0.588672,
2010-07-20, 02:17:04,VALID,999.544,VALID,0,VALID,92.41,VALID,0,VALID,23.389,VALID,29,VALID,0.646875,
2010-07-20, 02:18:04,VALID,999.517,VALID,0,VALID,92.41,VALID,0,VALID,23.3677,VALID,29,VALID,0.598828,
2010-07-20, 02:19:04,VALID,999.504,VALID,0,VALID,92.4252,VALID,0,VALID,23.3695,VALID,29,VALID,0.516016,
2010-07-20, 02:20:04,VALID,999.456,VALID,0,VALID,92.4176,VALID,0,VALID,23.3695,VALID,29,VALID,0.380078,
2010-07-20, 02:21:04,VALID,999.489,VALID,0,VALID,92.4481,VALID,0,VALID,23.3305,VALID,29,VALID,0.317969,
2010-07-20, 02:22:04,VALID,999.456,VALID,0,VALID,92.4939,VALID,0,VALID,23.311,VALID,29,VALID,0.219922,
2010-07-20, 02:23:04,VALID,999.428,VALID,0,VALID,92.5244,VALID,0,VALID,23.311,VALID,29,VALID,0.164844,
2010-07-20, 02:24:04,VALID,999.432,VALID,0,VALID,92.5244,VALID,0,VALID,23.2915,VALID,29,VALID,0.0488281,
2010-07-20, 02:25:04,VALID,999.46,VALID,0,VALID,92.5473,VALID,0,VALID,23.2915,VALID,29,VALID,0,
2010-07-20, 02:26:04,VALID,999.451,VALID,0,VALID,92.5549,VALID,0,VALID,23.2524,VALID,29,VALID,0,
2010-07-20, 02:27:04,VALID,999.424,VALID,0,VALID,92.6083,VALID,0,VALID,23.2524,VALID,29,VALID,0,
2010-07-20, 02:28:04,VALID,999.444,VALID,0,VALID,92.677,VALID,0,VALID,23.2524,VALID,29,VALID,0.201562,
2010-07-20, 02:29:04,VALID,999.423,VALID,0,VALID,92.7304,VALID,0,VALID,23.2329,VALID,29,VALID,0.0472656,
2010-07-20, 02:30:04,VALID,999.406,VALID,0,VALID,92.7457,VALID,0,VALID,23.2117,VALID,29,VALID,0.340234,
2010-07-20, 02:31:04,VALID,999.385,VALID,0,VALID,92.738,VALID,0,VALID,23.2134,VALID,29,VALID,0.301953,
2010-07-20, 02:32:04,VALID,999.351,VALID,0,VALID,92.7151,VALID,0,VALID,23.2134,VALID,29,VALID,0.396094,
2010-07-20, 02:33:04,VALID,999.356,VALID,0,VALID,92.6846,VALID,0,VALID,23.1921,VALID,29,VALID,0.44375,
2010-07-20, 02:34:04,VALID,999.378,VALID,0,VALID,92.6694,VALID,0,VALID,23.1921,VALID,29,VALID,0.505859,
2010-07-20, 02:35:04,VALID,999.388,VALID,0,VALID,92.6312,VALID,0,VALID,23.2134,VALID,29,VALID,0.672656,
2010-07-20, 02:36:04,VALID,999.4,VALID,0,VALID,92.5931,VALID,0,VALID,23.2329,VALID,29,VALID,0.848047,
2010-07-20, 02:37:04,VALID,999.418,VALID,0,VALID,92.5778,VALID,0,VALID,23.1939,VALID,29,VALID,1.0332,
2010-07-20, 02:38:04,VALID,999.437,VALID,0,VALID,92.5854,VALID,0,VALID,23.1939,VALID,29,VALID,1.17227,
2010-07-20, 02:39:04,VALID,999.471,VALID,0,VALID,92.5854,VALID,0,VALID,23.1531,VALID,29,VALID,1.18086,
2010-07-20, 02:40:04,VALID,999.483,VALID,0,VALID,92.6541,VALID,0,VALID,23.1744,VALID,28,VALID,1.13477,
2010-07-20, 02:41:04,VALID,999.482,VALID,0,VALID,92.6846,VALID,0,VALID,23.1549,VALID,28,VALID,1.05547,
2010-07-20, 02:42:04,VALID,999.474,VALID,0,VALID,92.7685,VALID,0,VALID,23.1531,VALID,28,VALID,0.967188,
2010-07-20, 02:43:04,VALID,999.48,VALID,0,VALID,92.8067,VALID,0,VALID,23.1549,VALID,27,VALID,0.787891,
2010-07-20, 02:44:04,VALID,999.461,VALID,0,VALID,92.822,VALID,0,VALID,23.1354,VALID,18,VALID,0.792188,
2010-07-20, 02:45:04,VALID,999.454,VALID,0,VALID,92.8372,VALID,0,VALID,23.1354,VALID,18,VALID,0.735156,
2010-07-20, 02:46:04,VALID,999.46,VALID,0,VALID,92.8601,VALID,0,VALID,23.1159,VALID,18,VALID,0.591797,
2010-07-20, 02:47:04,VALID,999.478,VALID,0,VALID,92.8448,VALID,0,VALID,23.1159,VALID,18,VALID,0.486328,
2010-07-20, 02:48:04,VALID,999.458,VALID,0,VALID,92.8677,VALID,0,VALID,23.1159,VALID,18,VALID,0.424609,
2010-07-20, 02:49:04,VALID,999.51,VALID,0,VALID,92.8601,VALID,0,VALID,23.0964,VALID,18,VALID,0.402734,
2010-07-20, 02:50:04,VALID,999.493,VALID,0,VALID,92.8601,VALID,0,VALID,23.0769,VALID,18,VALID,0.328125,
2010-07-20, 02:51:04,VALID,999.487,VALID,0,VALID,92.883,VALID,0,VALID,23.0769,VALID,18,VALID,0.361719,
2010-07-20, 02:52:04,VALID,999.518,VALID,0,VALID,92.8601,VALID,0,VALID,23.0769,VALID,18,VALID,0.486719,
2010-07-20, 02:53:04,VALID,999.479,VALID,0,VALID,92.8983,VALID,0,VALID,23.0573,VALID,18,VALID,0.649219,
2010-07-20, 02:54:04,VALID,999.437,VALID,0,VALID,92.8983,VALID,0,VALID,23.0556,VALID,18,VALID,0.612109,
2010-07-20, 02:55:04,VALID,999.399,VALID,0,VALID,92.8677,VALID,0,VALID,23.0573,VALID,18,VALID,0.334766,
2010-07-20, 02:56:04,VALID,999.374,VALID,0,VALID,92.8296,VALID,0,VALID,23.0378,VALID,18,VALID,0.329297,
2010-07-20, 02:57:04,VALID,999.349,VALID,0,VALID,92.7991,VALID,0,VALID,23.0361,VALID,18,VALID,0.0398437,
2010-07-20, 02:58:04,VALID,999.31,VALID,0,VALID,92.8296,VALID,0,VALID,23.0769,VALID,18,VALID,0,
2010-07-20, 02:59:04,VALID,999.303,VALID,0,VALID,92.8296,VALID,0,VALID,23.0769,VALID,18,VALID,0,
2010-07-20, 03:00:04,VALID,999.299,VALID,0,VALID,92.8448,VALID,0.112286,VALID,23.0751,VALID,18,VALID,0,
2010-07-20, 03:01:04,VALID,999.314,VALID,0,VALID,92.8143,VALID,0,VALID,23.0769,VALID,18,VALID,0,
2010-07-20, 03:02:05,VALID,999.288,VALID,0,VALID,92.7533,VALID,0,VALID,23.0751,VALID,18,VALID,0,
2010-07-20, 03:03:05,VALID,999.292,VALID,0,VALID,92.7304,VALID,0,VALID,23.0769,VALID,18,VALID,0,
2010-07-20, 03:04:05,VALID,999.286,VALID,0,VALID,92.6923,VALID,0,VALID,23.0769,VALID,18,VALID,0,
2010-07-20, 03:05:05,VALID,999.31,VALID,0,VALID,92.6923,VALID,0,VALID,23.0361,VALID,18,VALID,0,
2010-07-20, 03:06:05,VALID,999.267,VALID,0,VALID,92.6923,VALID,0,VALID,23.0378,VALID,18,VALID,0,
2010-07-20, 03:07:05,VALID,999.279,VALID,0,VALID,92.7075,VALID,0,VALID,23.0573,VALID,18,VALID,0,
2010-07-20, 03:08:05,VALID,999.276,VALID,0,VALID,92.7304,VALID,0.112286,VALID,23.0166,VALID,18,VALID,0,
2010-07-20, 03:09:05,VALID,999.296,VALID,0,VALID,92.7685,VALID,0,VALID,23.0378,VALID,18,VALID,0,
2010-07-20, 03:10:05,VALID,999.284,VALID,0,VALID,92.8143,VALID,0,VALID,23.0166,VALID,18,VALID,0,
2010-07-20, 03:11:05,VALID,999.309,VALID,0,VALID,92.8296,VALID,0,VALID,23.0378,VALID,18,VALID,0,
2010-07-20, 03:12:05,VALID,999.28,VALID,0,VALID,92.8372,VALID,0,VALID,23.0166,VALID,18,VALID,0,
2010-07-20, 03:13:05,VALID,999.305,VALID,0,VALID,92.8372,VALID,0,VALID,23.0378,VALID,18,VALID,0,
2010-07-20, 03:14:05,VALID,999.326,VALID,0,VALID,92.8525,VALID,0,VALID,23.0378,VALID,18,VALID,0,
2010-07-20, 03:15:05,VALID,999.304,VALID,0,VALID,92.8754,VALID,0,VALID,22.9971,VALID,18,VALID,0,
2010-07-20, 03:16:05,VALID,999.321,VALID,0,VALID,92.9364,VALID,0,VALID,23.0573,VALID,18,VALID,0,
2010-07-20, 03:17:05,VALID,999.302,VALID,0,VALID,92.9288,VALID,0,VALID,23.0378,VALID,103,VALID,0.759375,
2010-07-20, 03:18:05,VALID,999.324,VALID,0,VALID,92.9288,VALID,0,VALID,23.0361,VALID,108,VALID,0.901172,
2010-07-20, 03:19:05,VALID,999.353,VALID,0,VALID,92.9517,VALID,0,VALID,23.0964,VALID,108,VALID,0.775,
2010-07-20, 03:20:05,VALID,999.349,VALID,0,VALID,92.8754,VALID,0,VALID,23.1159,VALID,108,VALID,0.833984,
2010-07-20, 03:21:05,VALID,999.387,VALID,0,VALID,92.6846,VALID,0,VALID,23.1336,VALID,108,VALID,0.954297,
2010-07-20, 03:22:05,VALID,999.402,VALID,0,VALID,92.4481,VALID,0,VALID,23.1744,VALID,108,VALID,0.929688,
2010-07-20, 03:23:05,VALID,999.442,VALID,0,VALID,92.3337,VALID,0,VALID,23.1744,VALID,108,VALID,0.836328,
2010-07-20, 03:24:05,VALID,999.493,VALID,0,VALID,92.3337,VALID,0,VALID,23.2134,VALID,108,VALID,0.760938,
2010-07-20, 03:25:05,VALID,999.47,VALID,0,VALID,92.3947,VALID,0,VALID,23.2134,VALID,108,VALID,0.752344,
2010-07-20, 03:26:05,VALID,999.507,VALID,0,VALID,92.3947,VALID,0,VALID,23.2134,VALID,108,VALID,0.672266,
2010-07-20, 03:27:05,VALID,999.509,VALID,0,VALID,92.3947,VALID,0,VALID,23.2117,VALID,108,VALID,0.518359,
2010-07-20, 03:28:05,VALID,999.499,VALID,0,VALID,92.3871,VALID,0,VALID,23.1921,VALID,108,VALID,0.458594,
2010-07-20, 03:29:05,VALID,999.491,VALID,0,VALID,92.3642,VALID,0,VALID,23.2134,VALID,108,VALID,0.594922,
2010-07-20, 03:30:05,VALID,999.489,VALID,0,VALID,92.4176,VALID,0,VALID,23.2329,VALID,100,VALID,0.815234,
2010-07-20, 03:31:05,VALID,999.513,VALID,0,VALID,92.4481,VALID,0,VALID,23.2134,VALID,93,VALID,0.678516,
2010-07-20, 03:32:05,VALID,999.508,VALID,0,VALID,92.4328,VALID,0,VALID,23.2134,VALID,88,VALID,0.720312,
2010-07-20, 03:33:05,VALID,999.546,VALID,0,VALID,92.3947,VALID,0,VALID,23.1921,VALID,67,VALID,0.704687,
2010-07-20, 03:34:05,VALID,999.52,VALID,0,VALID,92.265,VALID,0,VALID,23.1744,VALID,55,VALID,0.896094,
2010-07-20, 03:35:05,VALID,999.572,VALID,0,VALID,92.1658,VALID,0,VALID,23.1549,VALID,49,VALID,0.942187,
2010-07-20, 03:36:05,VALID,999.592,VALID,0,VALID,92.12,VALID,0,VALID,23.1354,VALID,47,VALID,0.852344,
2010-07-20, 03:37:05,VALID,999.615,VALID,0,VALID,92.1277,VALID,0,VALID,23.1354,VALID,50,VALID,0.882031,
2010-07-20, 03:38:05,VALID,999.642,VALID,0,VALID,92.0819,VALID,0,VALID,23.1354,VALID,52,VALID,0.642187,
2010-07-20, 03:39:05,VALID,999.637,VALID,0,VALID,91.998,VALID,0,VALID,23.1549,VALID,68,VALID,0.997266,
2010-07-20, 03:40:05,VALID,999.635,VALID,0,VALID,91.8148,VALID,0,VALID,23.1744,VALID,76,VALID,0.825,
2010-07-20, 03:41:05,VALID,999.65,VALID,0,VALID,91.6317,VALID,0,VALID,23.2134,VALID,76,VALID,0.3625,
2010-07-20, 03:42:05,VALID,999.618,VALID,0,VALID,91.4334,VALID,0,VALID,23.2524,VALID,76,VALID,0.369141,
2010-07-20, 03:43:05,VALID,999.635,VALID,0,VALID,91.2426,VALID,0,VALID,23.2719,VALID,76,VALID,0.473047,
2010-07-20, 03:44:05,VALID,999.6,VALID,0,VALID,91.0671,VALID,0,VALID,23.2915,VALID,76,VALID,0.507031,
2010-07-20, 03:45:05,VALID,999.627,VALID,0,VALID,90.8764,VALID,0,VALID,23.3305,VALID,80,VALID,0.475781,
2010-07-20, 03:46:05,VALID,999.629,VALID,0,VALID,90.762,VALID,0,VALID,23.35,VALID,105,VALID,0.773828,
2010-07-20, 03:47:05,VALID,999.58,VALID,0,VALID,90.617,VALID,0,VALID,23.389,VALID,106,VALID,0.594922,
2010-07-20, 03:48:05,VALID,999.596,VALID,0,VALID,90.5331,VALID,0,VALID,23.4085,VALID,106,VALID,0.506641,
2010-07-20, 03:49:05,VALID,999.607,VALID,0,VALID,90.472,VALID,0,VALID,23.4067,VALID,106,VALID,0.466406,
2010-07-20, 03:50:05,VALID,999.556,VALID,0,VALID,90.472,VALID,0,VALID,23.4475,VALID,106,VALID,0.376172,